GW6458 Weather Reports


time (UTC)temp
F
wind
direction
speed
knots
gust
knots
rain 1hr
in
rain 24hr
in
rain mn
in
humidity
%
barometer
mb
20260507070121 52 168 4.3 7.8 0.00 0.39 0.00 83 1012.8
20260507065050 51 213 3.5 8.7 0.00 0.39 0.00 85 1012.7
20260507064549 50 223 2.6 8.7 0.00 0.39 0.00 85 1012.7
20260507064049 50 233 3.5 8.7 0.00 0.39 0.00 85 1012.5
20260507063549 50 212 4.3 8.7 0.00 0.39 0.00 85 1012.7
20260507063540 50 233 5.2 7.8 0.00 0.39 0.00 86 1012.5
20260507062551 50 240 1.7 6.1 0.00 0.39 0.00 87 1012.5
20260507062051 50 196 2.6 6.1 0.00 0.39 0.00 87 1012.4
20260507061549 49 213 2.6 5.2 0.00 0.39 0.00 87 1012.4
20260507061050 49 230 1.7 7.8 0.00 0.39 0.00 87 1012.4
20260507060954 49 219 2.6 7.8 0.00 0.39 0.00 87 1012.4
20260507060104 49 247 3.5 7.8 0.00 0.39 0.00 87 1012.4
20260507060001 49 219 3.5 7.8 0.00 0.39 0.00 88 1012.3
20260507055047 49 238 2.6 7.0 0.00 0.39 0.00 88 1012.3
20260507054548 49 230 2.6 7.0 0.00 0.39 0.00 88 1012.2
20260507054047 49 226 3.5 7.8 0.00 0.39 0.00 89 1012.1
20260507053547 48 219 4.3 7.8 0.00 0.39 0.00 90 1012.0
20260507053042 48 221 1.7 6.1 0.00 0.39 0.00 91 1012.0
20260507052546 47 226 4.3 6.1 0.00 0.39 0.00 92 1011.9
20260507052050 47 213 1.7 6.1 0.00 0.39 0.00 93 1011.8
20260507051553 46 197 0.0 0.9 0.00 0.39 0.00 93 1012.0
20260507051150 46 221 0.0 1.7 0.00 0.39 0.00 93 1011.9
20260507051049 46 221 0.0 1.7 0.00 0.39 0.00 93 1011.9
20260507050106 45 221 0.0 2.6 0.00 0.39 0.00 93 1011.7
20260507045534 44 221 0.0 2.6 0.00 0.39 0.00 93 1011.7
20260507045036 44 221 0.0 2.6 0.00 0.39 0.00 93 1011.7
20260507044534 43 221 0.0 1.7 0.00 0.39 0.00 92 1011.7
20260507044035 43 221 0.0 0.9 0.00 0.39 0.00 92 1011.7
20260507043539 43 221 0.0 0.9 0.00 0.39 0.00 92 1011.5
20260507043044 42 221 0.0 0.9 0.00 0.39 0.00 91 1011.5
20260507043027 42 221 0.0 0.0 0.00 0.39 0.00 91 1011.4
20260507042036 43 221 0.0 0.0 0.00 0.39 0.00 91 1011.3
20260507041535 43 221 0.0 0.0 0.00 0.39 0.00 91 1011.4
20260507041058 44 221 0.0 0.9 0.00 0.39 0.00 91 1011.4
20260507041041 43 221 0.0 0.0 0.00 0.39 0.00 90 1011.4
20260507040055 44 221 0.0 0.9 0.00 0.39 0.00 91 1011.5
20260507035527 44 221 0.0 0.0 0.00 0.39 0.00 91 1011.5
20260507035021 44 221 0.0 0.0 0.00 0.39 0.00 91 1011.4
20260507034524 44 221 0.0 0.9 0.00 0.39 0.00 90 1011.4
20260507034027 44 221 0.0 0.9 0.00 0.39 0.00 91 1011.3
20260507033520 45 221 0.0 1.7 0.00 0.39 0.00 91 1011.2
20260507033019 45 221 0.0 1.7 0.00 0.39 0.00 91 1011.1
20260507032516 45 221 0.9 1.7 0.00 0.39 0.00 91 1011.2
20260507032014 45 221 0.9 1.7 0.00 0.39 0.00 91 1011.2
20260507031714 45 221 0.9 2.6 0.00 0.39 0.00 91 1011.1
20260507030512 45 219 0.9 2.6 0.00 0.39 0.00 91 1011.1
20260507030014 45 213 0.9 2.6 0.00 0.39 0.00 91 1011.0
20260507025512 45 209 0.9 2.6 0.00 0.39 0.00 92 1011.0
20260507025010 44 207 0.9 2.6 0.00 0.39 0.00 91 1011.0
20260507024509 45 216 0.9 2.6 0.00 0.39 0.00 91 1011.0
20260507024008 45 216 0.0 2.6 0.00 0.39 0.00 91 1010.9
20260507023512 45 217 0.0 5.2 0.00 0.39 0.00 91 1010.8
20260507023036 45 217 0.0 7.0 0.00 0.39 0.00 92 1010.8
20260507022528 45 247 3.5 7.0 0.00 0.39 0.00 92 1010.8
20260507021636 44 207 0.9 1.7 0.00 0.39 0.00 91 1010.9
20260507021531 44 212 1.7 2.6 0.00 0.39 0.00 92 1010.9
20260507020521 44 207 0.9 0.9 0.00 0.39 0.00 91 1010.9
20260507020029 44 207 0.0 0.9 0.00 0.39 0.00 91 1010.9
20260507015515 45 207 0.0 0.0 0.00 0.39 0.00 91 1010.8
20260507015022 45 207 0.0 0.9 0.00 0.39 0.00 91 1010.8
20260507014522 45 207 0.0 0.9 0.00 0.39 0.00 91 1010.8
20260507014007 45 207 0.0 0.9 0.00 0.39 0.00 91 1010.8
20260507013509 45 207 0.0 1.7 0.00 0.39 0.00 91 1010.7
20260507013009 45 207 0.0 2.6 0.00 0.39 0.00 91 1010.7
20260507012516 45 207 0.9 2.6 0.00 0.39 0.00 91 1010.7
20260507012022 45 207 0.9 2.6 0.00 0.39 0.00 91 1010.6
20260507011510 45 206 0.9 1.7 0.00 0.39 0.00 91 1010.6
20260507011008 45 204 0.9 2.6 0.00 0.39 0.00 91 1010.6
20260507010505 45 204 0.0 2.6 0.00 0.39 0.00 91 1010.6
20260507010009 45 203 0.9 2.6 0.00 0.39 0.00 91 1010.6
20260507005506 45 200 1.7 1.7 0.00 0.39 0.00 91 1010.7
20260507005007 45 200 0.9 0.9 0.00 0.39 0.00 90 1010.6
20260507004516 46 200 0.0 0.9 0.00 0.39 0.00 90 1010.6
20260507004013 46 200 0.0 0.9 0.00 0.39 0.00 89 1010.4
20260507003527 46 200 0.0 0.9 0.00 0.39 0.00 89 1010.4
20260507003027 46 200 0.0 0.9 0.00 0.39 0.00 89 1010.4
20260507002522 47 200 0.0 1.7 0.00 0.39 0.00 89 1010.4
20260507002446 47 200 0.0 1.7 0.00 0.39 0.00 89 1010.4
20260507001941 47 200 0.9 1.7 0.00 0.39 0.00 89 1010.4
20260507001025 47 200 1.7 2.6 0.00 0.39 0.00 89 1010.4
20260507000511 47 200 1.7 2.6 0.00 0.39 0.00 89 1010.5
20260507000011 48 200 0.9 2.6 0.00 0.39 0.00 89 1010.7
20260506235505 48 213 0.9 4.3 0.00 0.39 0.00 89 1010.5
20260506235004 48 212 1.7 4.3 0.00 0.39 0.00 89 1010.6
20260506234901 48 214 1.7 4.3 0.00 0.39 0.00 89 1010.6
20260506234008 48 241 0.9 4.3 0.00 0.39 0.00 89 1010.5
20260506233508 48 247 2.6 4.3 0.00 0.39 0.00 89 1010.5
20260506233003 48 214 0.9 4.3 0.00 0.39 0.00 89 1010.5
20260506232500 48 210 0.9 2.6 0.00 0.39 0.00 89 1010.5
20260506232003 48 206 1.7 2.6 0.00 0.39 0.00 89 1010.4
20260506231500 48 206 0.9 2.6 0.00 0.39 0.00 89 1010.4
20260506231000 49 210 0.9 2.6 0.00 0.39 0.00 89 1010.5
20260506230501 49 209 1.7 2.6 0.00 0.39 0.00 89 1010.5
20260506230014 49 220 0.9 2.6 0.00 0.39 0.00 88 1010.4
20260506225502 49 214 0.9 4.3 0.00 0.39 0.00 88 1010.4
20260506225416 49 216 0.9 4.3 0.00 0.39 0.00 88 1010.2
20260506224958 49 216 1.7 2.6 0.00 0.39 0.00 88 1010.4
20260506224000 49 262 0.9 5.2 0.00 0.39 0.00 88 1010.2
20260506223554 49 223 1.7 6.1 0.00 0.39 0.00 88 1010.5
20260506223515 49 220 1.7 6.1 0.00 0.39 0.00 88 1010.4
20260506222933 49 223 2.6 5.2 0.00 0.39 0.00 88 1010.4
20260506222002 49 209 0.9 5.2 0.00 0.39 0.00 88 1010.2
20260506221502 49 193 1.7 5.2 0.00 0.39 0.00 88 1010.1
20260506221001 50 196 1.7 5.2 0.00 0.39 0.00 87 1010.1
20260506220525 50 212 0.9 2.6 0.00 0.39 0.00 87 1010.1
20260506220005 50 214 1.7 2.6 0.00 0.39 0.39 87 1010.0
20260506215503 50 216 1.7 4.3 0.00 0.39 0.39 87 1009.9
20260506215004 50 219 1.7 4.3 0.00 0.39 0.39 86 1009.9
20260506214501 50 207 1.7 4.3 0.00 0.39 0.39 86 1009.9
20260506214001 50 204 0.9 5.2 0.00 0.39 0.39 86 1010.0
20260506213506 50 206 1.7 6.1 0.00 0.39 0.39 86 1010.0
20260506213002 50 212 3.5 6.1 0.00 0.39 0.39 86 1009.9
20260506212503 51 206 1.7 7.0 0.00 0.39 0.39 86 1009.9
20260506212004 51 207 3.5 7.0 0.00 0.39 0.39 87 1009.8
20260506211502 51 206 3.5 6.1 0.00 0.39 0.39 87 1009.7
20260506211002 51 243 3.5 7.8 0.00 0.39 0.39 87 1009.7
20260506210538 51 224 2.6 6.1 0.00 0.39 0.39 86 1009.5
20260506210513 51 233 3.5 7.8 0.00 0.39 0.39 86 1009.7
20260506210011 51 209 2.6 6.1 0.00 0.39 0.39 86 1009.6
20260506205004 51 228 1.7 7.0 0.00 0.39 0.39 86 1009.5
20260506204506 51 207 2.6 9.6 0.00 0.39 0.39 86 1009.4
20260506204112 51 204 2.6 8.7 0.00 0.39 0.39 87 1009.5
20260506204020 51 223 3.5 9.6 0.00 0.39 0.39 86 1009.5
20260506203005 51 207 3.5 10.4 0.00 0.39 0.39 87 1009.4
20260506202506 51 196 7.0 10.4 0.00 0.39 0.39 87 1009.6
20260506202003 52 219 4.3 9.6 0.00 0.39 0.39 87 1009.3
20260506201503 52 220 4.3 7.8 0.00 0.39 0.39 87 1009.3
20260506201005 52 193 3.5 6.1 0.00 0.39 0.39 87 1009.3
20260506200504 52 166 1.7 7.8 0.00 0.39 0.39 86 1009.2
20260506200005 52 254 2.6 7.8 0.00 0.39 0.39 86 1009.0
20260506195505 53 250 3.5 9.6 0.00 0.39 0.39 86 1009.0
20260506195004 53 212 3.5 9.6 0.00 0.39 0.39 86 1008.9
20260506194503 53 244 5.2 13.0 0.00 0.39 0.39 87 1008.7
20260506194004 53 262 7.0 13.0 0.00 0.39 0.39 87 1008.7
20260506193502 53 252 5.2 12.2 0.00 0.39 0.39 87 1008.5
20260506193003 53 265 6.1 12.2 0.00 0.39 0.39 87 1008.5
20260506192918 53 257 5.2 10.4 0.00 0.39 0.39 87 1008.5
20260506192001 53 251 5.2 14.8 0.00 0.39 0.39 87 1008.3
20260506191501 53 238 7.0 14.8 0.00 0.39 0.39 87 1008.3
20260506191005 53 238 4.3 8.7 0.00 0.39 0.39 87 1008.3
20260506190506 53 238 4.3 9.6 0.00 0.39 0.39 87 1008.1
20260506190002 53 237 4.3 13.9 0.00 0.39 0.39 87 1007.9
20260506185459 53 214 6.1 13.9 0.00 0.39 0.39 87 1007.8
20260506185000 53 237 4.3 9.6 0.00 0.39 0.39 87 1007.7
20260506184502 53 237 5.2 9.6 0.01 0.39 0.39 87 1007.7
20260506184001 53 195 4.3 12.2 0.01 0.39 0.39 87 1007.8
20260506183701 53 0 6.1 12.2 0.01 0.39 0.39 87 1007.6
20260506182500 53 214 4.3 12.2 0.01 0.39 0.39 86 1007.6
20260506181958 53 226 6.1 12.2 0.01 0.39 0.39 85 1007.6
20260506181501 53 240 4.3 12.2 0.01 0.39 0.39 85 1007.5
20260506181429 54 258 5.2 16.5 0.01 0.39 0.39 84 1007.4
20260506180456 55 223 8.7 16.5 0.01 0.39 0.39 83 1007.4
20260506175955 56 196 7.0 15.6 0.01 0.39 0.39 84 1007.3
20260506175456 57 216 5.2 14.8 0.01 0.39 0.39 85 1007.1
20260506174955 57 197 3.5 7.0 0.01 0.39 0.39 87 1006.8
20260506174656 57 214 3.5 7.0 0.00 0.39 0.39 86 1006.6
20260506173501 57 185 1.7 7.0 0.00 0.39 0.39 87 1006.3
20260506172958 57 202 2.6 7.0 0.00 0.39 0.39 87 1006.1
20260506172457 57 176 3.5 6.1 0.00 0.39 0.39 89 1006.0
20260506171956 57 192 1.7 2.6 0.00 0.39 0.39 90 1005.9
20260506171457 57 162 0.9 1.7 0.01 0.39 0.39 90 1005.5
20260506170953 56 162 0.9 1.7 0.02 0.39 0.39 90 1005.4
20260506170454 56 82 0.0 0.0 0.02 0.39 0.39 90 1005.3
20260506165954 56 82 0.0 0.0 0.04 0.35 0.39 90 1005.2
20260506165456 56 82 0.0 0.0 0.06 0.35 0.39 90 1005.1
20260506164955 56 82 0.0 0.9 0.09 0.35 0.39 91 1005.0
20260506164454 56 82 0.0 1.7 0.09 0.35 0.39 90 1005.1
20260506163954 55 82 0.0 1.7 0.13 0.35 0.39 91 1005.1
20260506163454 55 82 0.9 6.1 0.16 0.35 0.39 91 1005.1
20260506162955 55 82 2.6 7.0 0.21 0.35 0.39 91 1004.8
20260506162454 54 0 3.5 7.0 0.30 0.35 0.39 90 1004.8
20260506161956 53 0 2.6 5.2 0.33 0.35 0.39 90 1005.0
20260506161453 53 224 0.9 7.0 0.33 0.35 0.38 89 1005.6
20260506161009 53 0 2.6 10.4 0.33 0.35 0.37 89 1005.6
20260506160510 53 324 4.3 10.4 0.34 0.35 0.35 89 1005.9
20260506155953 53 266 1.7 6.1 0.33 0.02 0.34 90 1006.3
20260506155453 53 47 1.7 4.3 0.31 0.02 0.31 88 1006.8
20260506155152 53 233 0.0 1.7 0.29 0.02 0.30 88 1006.7
20260506153953 53 233 0.0 6.1 0.26 0.02 0.26 86 1006.6
20260506153455 54 233 1.7 13.0 0.23 0.02 0.22 84 1006.7
20260506152955 55 207 1.7 15.6 0.17 0.02 0.16 82 1007.0
20260506152926 57 250 10.4 16.5 0.09 0.02 0.07 77 1007.0
20260506151953 59 248 8.7 16.5 0.06 0.02 0.06 78 1006.3
20260506151454 60 221 6.1 7.8 0.05 0.02 0.05 80 1005.6
20260506150953 61 228 3.5 7.0 0.04 0.02 0.04 77 1005.2
20260506150453 62 118 1.7 5.2 0.02 0.02 0.02 75 1005.0
20260506145954 64 248 2.6 5.2 0.02 0.01 0.02 72 1004.7
20260506145942 65 8 0.9 5.2 0.02 0.01 0.02 66 1004.6
20260506145931 66 355 1.7 7.0 0.01 0.01 0.01 65 1004.4
20260506144453 66 31 1.7 7.0 0.00 0.01 0.00 61 1004.3
20260506143958 67 63 3.5 7.0 0.00 0.01 0.00 57 1004.1
20260506143455 67 45 4.3 7.8 0.00 0.01 0.00 56 1004.1
20260506142953 68 32 5.2 8.7 0.00 0.01 0.00 55 1004.1
20260506142451 68 51 6.1 8.7 0.00 0.01 0.00 56 1004.1
20260506141951 69 56 5.2 7.8 0.00 0.01 0.00 54 1004.2
20260506141454 69 111 5.2 7.8 0.00 0.01 0.00 54 1004.3
20260506141003 70 76 3.5 6.1 0.00 0.01 0.00 52 1004.3
20260506140453 70 38 3.5 6.1 0.00 0.01 0.00 54 1004.5
20260506135952 70 55 1.7 7.8 0.00 0.01 0.00 54 1004.5
20260506135458 70 41 6.1 10.4 0.00 0.01 0.00 53 1004.4
20260506134954 70 79 4.3 10.4 0.00 0.01 0.00 55 1004.4
20260506134913 70 63 4.3 8.7 0.00 0.01 0.00 54 1004.4
20260506133951 70 0 5.2 7.8 0.00 0.01 0.00 57 1004.5
20260506133453 69 7 2.6 5.2 0.00 0.01 0.00 58 1004.6
20260506132951 69 6 1.7 8.7 0.00 0.01 0.00 56 1004.6
20260506132450 69 0 6.1 8.7 0.00 0.01 0.00 56 1004.7
20260506131949 69 25 4.3 10.4 0.00 0.01 0.00 57 1004.6
20260506131449 68 78 5.2 10.4 0.00 0.01 0.00 57 1004.6
20260506130953 68 127 0.0 6.1 0.00 0.01 0.00 53 1004.7
20260506130450 69 178 1.7 6.1 0.00 0.01 0.00 56 1004.8
20260506125950 69 89 0.9 9.6 0.00 0.01 0.00 56 1004.9
20260506125451 69 114 1.7 9.6 0.00 0.01 0.00 56 1004.9
20260506124949 68 75 3.5 7.8 0.00 0.01 0.00 57 1004.9
20260506124451 67 85 4.3 5.2 0.00 0.01 0.00 59 1005.1
20260506123953 67 148 0.0 1.7 0.00 0.01 0.00 57 1005.2
20260506123447 68 141 0.0 2.6 0.00 0.01 0.00 58 1005.2
20260506122945 67 18 0.9 2.6 0.00 0.01 0.00 59 1005.2
20260506122446 67 113 0.9 2.6 0.00 0.01 0.00 58 1005.3
20260506121954 67 56 1.7 7.0 0.00 0.01 0.00 61 1005.3
20260506121454 67 113 1.7 7.0 0.00 0.01 0.00 56 1005.4
20260506120952 67 107 0.0 6.1 0.00 0.01 0.00 57 1005.4
20260506120507 67 6 1.7 2.6 0.00 0.01 0.00 63 1005.5
20260506120452 67 86 3.5 6.1 0.00 0.01 0.00 58 1005.4
20260506115446 66 113 0.0 7.8 0.00 0.01 0.00 59 1005.5
20260506114944 66 113 0.9 8.7 0.00 0.01 0.00 56 1005.3
20260506114445 66 80 4.3 8.7 0.00 0.01 0.00 56 1005.2
20260506113944 65 120 2.6 8.7 0.00 0.01 0.00 56 1005.3
20260506113445 65 87 3.5 7.8 0.00 0.01 0.00 59 1005.4
20260506113021 65 254 0.0 4.3 0.00 0.01 0.00 58 1006.1
20260506112952 65 111 2.6 5.2 0.00 0.01 0.00 57 1005.7
20260506111944 66 261 1.7 2.6 0.00 0.01 0.00 59 1006.3
20260506111443 67 32 0.9 4.3 0.00 0.01 0.00 60 1006.3
20260506111424 66 30 1.7 5.2 0.00 0.01 0.00 63 1006.3
20260506110442 66 4 1.7 5.2 0.00 0.01 0.00 63 1006.4
20260506105942 66 96 1.7 5.2 0.00 0.01 0.00 66 1006.5
20260506105440 65 49 1.7 5.2 0.00 0.01 0.00 64 1006.5
20260506104945 65 78 2.6 5.2 0.00 0.01 0.00 63 1006.4
20260506104441 65 183 0.0 5.2 0.00 0.01 0.00 63 1006.4
20260506104431 66 110 0.0 5.2 0.00 0.01 0.00 59 1006.5
20260506103441 66 138 0.9 2.6 0.00 0.01 0.00 59 1006.6
20260506102943 66 237 0.9 4.3 0.00 0.01 0.00 64 1006.7
20260506102446 65 39 0.0 5.2 0.00 0.01 0.00 65 1006.9
20260506101943 65 61 2.6 5.2 0.00 0.01 0.00 66 1006.9
20260506101442 65 66 2.6 4.3 0.00 0.01 0.00 64 1006.9
20260506101026 65 107 1.7 5.2 0.00 0.01 0.00 63 1006.9
20260506100950 65 71 1.7 4.3 0.00 0.01 0.00 66 1006.9
20260506095944 65 23 0.9 6.1 0.00 0.01 0.00 64 1006.8
20260506095648 65 79 2.6 6.1 0.00 0.01 0.00 65 1006.9
20260506094908 65 344 0.0 1.7 0.00 0.01 0.00 65 1007.0
20260506093939 65 340 0.9 4.3 0.00 0.01 0.00 68 1006.8
20260506093442 64 3 1.7 6.1 0.00 0.01 0.00 65 1006.7
20260506093426 64 55 3.5 6.1 0.00 0.01 0.00 69 1006.7
20260506092446 64 73 3.5 6.1 0.00 0.01 0.00 67 1006.9
20260506091936 63 59 2.6 6.1 0.00 0.01 0.00 68 1006.8
20260506091437 63 100 2.6 6.1 0.00 0.01 0.00 69 1006.8
20260506090938 63 120 0.0 2.6 0.00 0.01 0.00 69 1006.9
20260506090444 63 157 0.0 2.6 0.00 0.01 0.00 70 1006.9
20260506085939 63 37 0.0 2.6 0.00 0.01 0.00 70 1007.0
20260506085438 63 37 0.9 4.3 0.00 0.01 0.00 67 1007.1
20260506084936 63 38 1.7 4.3 0.00 0.01 0.00 67 1007.1
20260506084433 63 262 0.9 1.7 0.00 0.01 0.00 68 1007.0
20260506083931 63 283 0.0 1.7 0.00 0.01 0.00 66 1007.2
20260506083433 63 281 0.0 1.7 0.00 0.01 0.00 69 1007.1
20260506082930 62 255 0.9 1.7 0.00 0.01 0.00 68 1007.1
20260506082905 62 255 0.0 2.6 0.00 0.01 0.00 69 1007.1
20260506081935 62 255 0.9 2.6 0.00 0.01 0.00 69 1007.0
20260506081434 63 251 1.7 2.6 0.00 0.01 0.00 71 1007.1
20260506080935 62 345 0.0 1.7 0.00 0.01 0.00 70 1007.0
20260506080432 62 341 0.9 2.6 0.00 0.01 0.00 71 1007.1
20260506073426 59 27 0.0 4.3 0.00 0.01 0.00 78 1007.4
20260506072925 58 221 0.0 1.7 0.00 0.01 0.00 81 1007.5
20260506072426 57 221 0.0 1.7 0.00 0.01 0.00 81 1007.4
20260506071931 57 219 0.9 2.6 0.00 0.01 0.00 81 1007.6
20260506071634 56 219 0.9 2.6 0.00 0.01 0.00 82 1007.7
20260506070423 57 199 0.0 0.9 0.00 0.01 0.00 81 1007.6